{"data":{"norad_id":65477,"epoch":"2026-09-20T22:04:10.559424Z","epoch_age_seconds":75624,"freshness":"FRESH","line1":"1 65477U 25195V   26263.91956666  .00015320  00000+0  46348-3 0  9996","line2":"2 65477  53.1595  67.8509 0003336  56.2486 303.8834 15.34408455 59912","mean_motion":15.34408455,"eccentricity":0.0003336,"inclination_deg":53.1595,"raan_deg":67.8509,"arg_perigee_deg":56.2486,"mean_anomaly_deg":303.8834,"bstar":0.00046348,"rev_number":5991,"period_min":93.847240955147,"perigee_km":460.3960143599,"apogee_km":464.96020620148,"semimajor_km":6840.8151102807,"source":"CELESTRAK","updated_at":"2026-09-21T09:00:35.638794Z"}}